Flag for Germany Weather past 2 weeks in Coesfeld, North Rhine-Westphalia, Germany

Now
52 °F

Cool.


Feels Like: 47 °F
Forecast: 24 / 30 °F
Wind: 14 mph from Southwest

Location: Rheine-Bentlage

Current Time: Dec 27, 2014 at 4:51:51 PM

Latest Report: Dec 27, 2014 at 4:20 PM


Visibility: N/A

Pressure: 29.62 "Hg

Humidity: 100%

Dew point: 52 °F

Location of CoesfeldLocation

Historic Weather in Coesfeld — Graph

°F

Coesfeld temperature yesterday

Maximum temperature yesterday: 52 °F (at 12:20 AM)
Minimum temperature yesterday: 52 °F (at 12:20 AM)
Average temperature yesterday: 52 °F

Past Weeks' High & Low Weather Summary

 TemperatureHumidityPressure
High54 °F (Dec 18, 2:20 PM)100% (Dec 16, 8:46 AM)30.36 "Hg (Dec 16, 8:46 AM)
Low36 °F (Dec 14, 8:20 PM)75% (Dec 15, 2:20 AM)29.30 "Hg (Dec 12, 3:20 PM)
Average48 °F96%29.92 "Hg
* Reported Dec 12 3:20 PM — Dec 27 3:20 PM, Coesfeld, Weather by CustomWeather, © 2014

Note: Actual official high and low records may vary slightly from our data, if they occured in-between our weather recording intervals... More about our weather records

Advertising

Coesfeld weather history for previous 24 hours

 ConditionsComfort  
Time TempWeatherWind HumidityBarometerVisibility
3:20 PM
Dec 27
52 °FCool.14 mph100%29.59 "HgN/A
2:20 PM52 °FCool.14 mph100%29.56 "HgN/A
1:20 PM52 °FCool.14 mph100%29.56 "HgN/A
12:20 PM52 °FCool.14 mph100%29.59 "HgN/A
11:20 AM52 °FCool.14 mph100%29.59 "HgN/A
10:20 AM52 °FCool.14 mph100%29.59 "HgN/A
9:20 AM52 °FCool.14 mph100%29.59 "HgN/A
8:20 AM52 °FCool.14 mph100%29.62 "HgN/A
7:20 AM52 °FCool.14 mph100%29.65 "HgN/A
6:20 AM52 °FCool.14 mph100%29.71 "HgN/A
5:20 AM52 °FCool.14 mph100%29.74 "HgN/A
4:20 AM52 °FCool.14 mph100%29.80 "HgN/A
3:20 AM52 °FCool.14 mph100%29.89 "HgN/A
2:20 AM52 °FCool.14 mph100%29.95 "HgN/A
1:20 AM52 °FCool.14 mph100%29.98 "HgN/A
12:20 AM52 °FCool.14 mph100%30.04 "HgN/A
11:20 PM
Dec 26
52 °FCool.14 mph100%30.09 "HgN/A
10:20 PM52 °FCool.14 mph100%30.12 "HgN/A
9:20 PM52 °FCool.14 mph100%30.18 "HgN/A
8:20 PM52 °FCool.14 mph100%30.21 "HgN/A
7:20 PM52 °FCool.14 mph100%30.24 "HgN/A
6:20 PM52 °FCool.14 mph100%30.27 "HgN/A
5:20 PM52 °FCool.14 mph100%30.30 "HgN/A
4:20 PM52 °FCool.14 mph100%30.30 "HgN/A
Weather by CustomWeather, © 2014

See weather overviewHow to use our weather pages